Weather History for Homestead AFB, FL

Change the Weather History Date:

Wednesday, February 1, 2012

  Actual Average Record
Temperature  
Mean Temperature 74 °F -  
Max Temperature 78 °F 75 °F 85 °F (1949)
Min Temperature 70 °F 55 °F 36 °F (1979)
Cooling Degree Days 9    
Growing Degree Days 24 (Base 50)    
Moisture  
Dew Point 66 °F    
Average Humidity 80    
Maximum Humidity 92    
Minimum Humidity 66    
Precipitation  
Precipitation 0.00 in - - ()
Sea Level Pressure  
Sea Level Pressure 30.19 in    
Wind  
Wind Speed 10 mph (East)    
Max Wind Speed 17 mph    
Max Gust Speed 23 mph    
Visibility 10 miles    
Events Rain    
Averages and records for this station are not official NWS values.
T = Trace of Precipitation, MM = Missing Value Source: NWS Daily Summary

Daily Weather History Graph

Daily Weather History Graph

Search for Another Location

Airport:

Trip Planner

Search our weather history database for the weather conditions in past years. The results will help you decide how hot, cold, wet, or windy it might be!

Date:

Astronomy

Feb. 01, 2012 Rise Set
Actual Time 7:05 AM EST 6:05 PM EST
Civil Twilight 6:41 AM EST 6:29 PM EST
Nautical Twilight 6:13 AM EST 6:56 PM EST
Astronomical Twilight 5:46 AM EST 7:24 PM EST
Moon 12:41 PM EST (2/1) 1:42 AM EST (2/1)
Length of Visible Light 11h 48m
Length of Day
11h 00m
Waxing Gibbous, 64% of the Moon is Illuminated
Feb 1
Waxing Gibbous
Feb 7
Full
Feb 14
Last Quarter
Feb 21
New
Feb 29
First Quarter

Hourly Weather History & Observations

Time (EST) Temp. Dew Point Humidity Pressure Visibility Wind Dir Wind Speed Gust Speed Precip Events Conditions
12:55 AM 71.2 °F 64.4 °F 79% 30.24 in 10.0 mi East 8.1 mph - N/A   Scattered Clouds
1:55 AM 71.1 °F 64.2 °F 79% 30.22 in 10.0 mi East 9.2 mph - N/A   Clear
2:55 AM 70.5 °F 63.9 °F 79% 30.21 in 10.0 mi East 8.1 mph - N/A   Clear
3:55 AM 70.3 °F 63.7 °F 79% 30.20 in 10.0 mi ENE 8.1 mph - N/A   Clear
4:55 AM 70.2 °F 64.2 °F 81% 30.21 in 10.0 mi ENE 8.1 mph - N/A   Clear
5:55 AM 70.5 °F 64.6 °F 81% 30.22 in 10.0 mi ENE 8.1 mph - N/A   Clear
6:55 AM 70.7 °F 64.9 °F 82% 30.22 in 10.0 mi East 10.4 mph - N/A   Clear
7:55 AM 71.8 °F 65.5 °F 80% 30.23 in 10.0 mi East 12.7 mph - N/A   Clear
8:55 AM - - N/A% 30.23 in - East 13.8 mph - N/A   Clear
9:55 AM 75.4 °F 65.8 °F 72% 30.25 in 10.0 mi ENE 13.8 mph - N/A   Clear
10:55 AM 76.5 °F 65.8 °F 70% 30.25 in 10.0 mi East 13.8 mph 23.0 mph N/A   Clear
11:55 AM 77.0 °F 65.8 °F 68% 30.23 in 10.0 mi East 16.1 mph 20.7 mph N/A   Clear
12:55 PM 77.7 °F 65.7 °F 66% 30.20 in 10.0 mi East 17.3 mph - N/A   Clear
1:55 PM 78.3 °F 66.7 °F 68% 30.18 in 10.0 mi East 12.7 mph - N/A   Clear
2:55 PM 76.5 °F 66.6 °F 71% 30.17 in 10.0 mi East 12.7 mph 20.7 mph N/A   Partly Cloudy
3:55 PM 75.7 °F 66.6 °F 73% 30.15 in 10.0 mi ENE 11.5 mph - N/A   Clear
4:55 PM 75.4 °F 66.7 °F 74% 30.15 in 10.0 mi ENE 11.5 mph - N/A   Clear
5:55 PM 73.2 °F 66.7 °F 80% 30.16 in 10.0 mi ENE 8.1 mph - N/A   Clear
6:55 PM 72.3 °F 67.3 °F 84% 30.16 in 10.0 mi East 5.8 mph - N/A   Clear
7:55 PM 72.0 °F 67.3 °F 85% 30.17 in 10.0 mi East 5.8 mph - N/A   Clear
8:55 PM 72.3 °F 67.6 °F 85% 30.16 in 10.0 mi ENE 8.1 mph - N/A   Clear
9:28 PM 71.6 °F 68.0 °F 88% 30.17 in 10.0 mi East 8.1 mph - N/A Rain Light Rain
9:38 PM 71.6 °F 68.0 °F 88% 30.17 in 10.0 mi East 8.1 mph - N/A   Clear
9:55 PM 72.1 °F 68.4 °F 88% 30.17 in 10.0 mi East 6.9 mph - 0.00 in   Clear
10:55 PM 72.3 °F 68.0 °F 86% 30.17 in 10.0 mi East 5.8 mph - N/A   Partly Cloudy
10:59 PM 71.6 °F 68.0 °F 88% 30.18 in 9.0 mi ESE 10.4 mph 17.3 mph N/A Rain Light Rain
11:11 PM 71.6 °F 68.0 °F 88% 30.17 in 10.0 mi East 9.2 mph - N/A   Scattered Clouds
11:22 PM 71.6 °F 68.0 °F 88% 30.17 in 10.0 mi East 6.9 mph - N/A Rain Light Rain
11:55 PM 71.1 °F 68.7 °F 92% 30.17 in 10.0 mi East 4.6 mph - 0.00 in   Light Drizzle